Theta_e
313 316 316 314 314 313 312 312 314 315 315 316 316 315 318 318 314 314 315 314 315 315 315 316 316 316 316 316 316 315 315 316 316 316 317 318 318 318 318 320 320 321 320 317 319 323 326 329 331 333 333 333 335 335 335 335 336 336 335 335 335 333 333 334 334 334 334 333 333 333 333 333 333 334 334 334 333 333 333 332 333 333 333 332 332 331
312 316 316 314 313 313 312 313 313 314 315 316 316 315 317 319 315 314 315 314 314 315 315 316 315 315 315 316 317 317 315 315 316 316 317 317 318 320 320 321 321 323 326 322 319 321 324 328 329 330 331 331 332 334 334 334 334 335 335 335 336 334 333 333 334 333 333 333 332 332 332 332 332 332 333 333 333 332 332 332 332 332 333 333 333 332
314 314 314 313 312 313 313 313 313 314 315 316 318 317 316 318 316 314 314 314 314 314 315 317 317 316 316 316 316 317 316 315 317 317 317 317 317 318 318 321 321 325 332 328 320 319 319 323 326 328 329 329 329 330 331 332 333 334 334 334 335 335 334 333 333 333 332 332 332 332 332 332 332 332 332 333 332 332 331 331 331 331 331 332 332 332
315 313 314 314 313 314 314 313 313 314 315 317 318 316 316 318 316 315 314 314 313 313 314 317 317 316 315 316 316 316 317 316 317 319 319 320 320 318 321 324 323 326 331 328 322 318 316 317 319 321 325 327 328 328 329 329 330 332 332 333 334 335 334 333 332 332 332 332 331 331 331 332 332 332 332 333 332 332 331 331 330 331 331 330 330 330
314 313 315 317 314 314 315 314 315 314 314 318 320 318 319 319 318 318 315 313 313 314 315 315 314 317 315 314 315 315 316 316 318 321 322 324 325 323 325 328 326 327 330 328 324 320 315 315 315 315 316 320 324 326 327 327 328 329 330 331 332 333 334 333 332 332 332 332 332 331 331 331 331 331 331 332 333 333 332 332 332 332 332 331 330 330
314 312 315 318 315 316 317 315 317 318 313 316 321 320 319 319 319 319 317 315 315 316 318 315 315 322 321 314 314 314 316 317 318 322 322 323 325 324 325 325 325 325 325 324 323 319 316 315 315 314 313 313 316 319 322 325 326 327 328 329 331 331 332 332 332 332 332 332 332 331 331 331 330 330 330 330 331 332 332 332 332 332 332 332 331 331
313 311 315 319 318 320 320 316 319 321 313 313 322 323 319 321 323 322 320 319 317 317 318 316 316 321 321 316 316 317 317 317 318 321 320 319 320 322 322 321 321 322 323 323 320 318 316 315 314 314 313 313 312 313 316 321 324 326 327 328 329 330 330 331 332 331 331 332 332 331 331 330 329 329 328 328 328 329 330 330 330 330 330 330 329 329
312 312 316 320 320 321 319 316 318 318 314 316 325 327 322 324 325 325 323 320 318 318 317 317 316 317 320 320 318 318 316 315 317 319 319 317 317 320 320 321 323 324 326 326 324 320 316 314 314 313 313 313 313 312 312 315 320 323 325 326 327 328 329 330 330 330 330 331 330 330 330 329 329 327 327 327 327 327 328 328 327 327 327 327 327 327
315 315 319 320 319 320 318 320 323 318 315 321 326 325 323 324 325 324 323 319 318 318 318 319 317 316 320 321 317 317 315 315 316 317 318 316 318 321 321 323 324 323 323 322 321 320 315 312 312 313 313 313 313 312 312 312 315 318 320 323 326 326 327 328 328 329 329 329 329 328 328 328 327 327 326 327 327 327 327 326 326 326 326 326 326 326
317 314 317 320 319 319 318 319 326 324 318 322 323 323 325 326 325 322 322 321 317 319 322 322 318 316 320 320 315 316 315 316 316 315 317 318 321 323 322 323 322 322 322 319 317 316 315 315 314 314 315 314 314 313 312 311 311 313 315 319 323 324 324 325 326 327 327 327 326 326 326 327 326 326 325 326 327 326 326 325 325 325 325 325 325 325
313 310 314 320 318 316 315 315 321 325 322 323 323 323 323 322 322 320 320 319 318 322 324 322 318 315 319 320 317 316 316 316 316 316 320 321 321 322 321 321 320 321 323 321 318 316 315 315 315 314 315 314 313 312 312 311 310 310 312 316 319 320 322 322 322 324 324 324 325 325 325 325 325 325 325 325 325 325 325 324 323 322 322 322 322 323
313 312 315 317 314 313 316 316 319 321 320 323 323 321 322 320 318 318 318 317 319 323 320 319 320 318 318 319 315 315 315 315 316 317 320 320 320 321 321 320 319 320 321 321 321 318 314 313 314 315 315 314 314 313 313 312 311 311 312 314 317 319 321 321 320 322 323 323 324 325 324 325 324 324 324 324 323 323 322 321 320 320 319 319 319 320
318 316 316 317 313 313 318 318 317 317 318 322 322 319 322 321 318 318 319 319 320 320 315 314 318 319 318 316 313 314 313 314 317 319 320 320 321 322 321 320 320 319 320 321 322 321 317 314 314 315 316 315 316 316 315 314 313 314 315 316 318 320 321 321 320 322 323 322 324 324 324 324 324 324 323 323 322 322 321 321 320 320 320 319 319 319
320 317 316 317 314 314 318 317 316 317 317 320 319 319 322 321 317 317 320 320 319 317 314 313 316 318 318 314 314 315 312 315 320 321 321 320 320 322 321 321 321 320 321 323 323 323 321 316 315 316 316 317 317 318 318 318 317 317 318 319 320 320 321 321 321 322 322 322 323 323 322 322 322 322 322 321 321 321 321 321 320 320 320 319 319 318
318 317 316 317 317 316 317 318 318 318 317 318 319 320 321 319 319 319 319 322 324 318 313 312 316 320 319 316 316 315 314 316 318 318 320 319 320 321 320 320 321 321 321 323 322 322 319 315 315 316 316 316 317 317 319 320 320 319 319 318 318 318 319 319 320 320 320 320 320 320 320 321 320 320 320 320 320 320 320 320 319 318 318 317 317 317
314 317 317 316 318 318 318 320 321 318 316 317 319 321 320 320 323 321 317 320 324 321 317 315 319 322 318 317 317 314 314 314 313 314 316 317 319 319 319 320 321 322 322 321 321 320 316 314 314 314 314 315 315 316 317 318 319 320 319 318 317 318 318 318 318 318 318 319 319 319 319 319 320 319 319 318 318 318 317 315 314 314 313 313 313 314
315 318 316 315 317 316 316 319 320 318 317 318 319 321 320 321 325 321 316 315 316 318 320 318 319 319 314 315 317 315 313 313 312 313 312 315 319 319 321 323 323 323 322 321 320 318 314 311 312 312 312 312 313 314 315 315 316 317 318 318 318 318 319 319 319 319 319 319 319 318 318 318 318 317 316 315 314 313 312 311 310 310 310 310 310 310
317 318 315 316 318 315 313 317 319 317 318 319 321 320 317 318 321 318 314 315 315 314 316 317 317 316 314 316 317 315 314 313 313 312 312 316 319 321 324 325 323 323 321 319 318 314 311 309 310 310 309 310 310 311 312 312 313 314 315 315 316 316 317 317 318 318 317 317 316 315 315 314 313 312 312 311 310 310 309 309 309 308 308 308 308 307
320 320 316 315 317 315 314 317 317 316 316 317 319 318 317 318 319 315 312 317 319 315 315 319 317 315 315 315 315 315 315 314 313 312 312 316 320 322 325 324 322 321 318 317 317 315 312 309 309 308 308 308 308 309 309 310 310 311 311 312 312 312 313 313 314 313 313 313 312 311 310 310 310 309 309 309 308 308 308 308 307 307 307 306 306 306
321 323 320 314 314 316 315 315 315 316 315 315 316 315 316 318 318 318 315 316 320 317 315 318 317 320 323 317 316 318 316 314 313 313 312 314 319 323 323 322 321 320 318 317 317 316 311 308 308 308 308 308 307 307 308 308 308 309 309 309 310 310 310 310 310 310 310 310 309 309 308 308 308 308 308 308 307 307 307 306 306 306 306 305 305 305
317 321 324 316 313 316 317 315 316 316 314 314 315 314 314 315 315 318 318 316 317 317 317 315 316 325 327 316 315 316 315 316 315 315 315 315 320 322 321 321 320 319 320 318 317 315 309 306 307 307 307 307 307 307 307 307 307 307 307 307 308 308 308 308 308 308 308 308 308 308 308 307 307 307 307 306 306 306 306 305 305 305 305 305 305 305
316 317 321 316 315 317 318 317 316 318 318 315 314 314 314 315 315 317 318 316 315 316 318 315 317 327 325 315 316 315 315 319 317 317 317 318 321 322 320 319 318 318 319 317 316 313 307 306 306 306 306 306 306 306 306 306 306 306 306 306 306 307 307 307 307 307 307 307 307 307 307 306 306 306 305 306 306 306 305 305 305 305 305 304 303 303
321 321 320 317 317 317 317 316 314 317 322 319 317 317 316 314 314 316 318 320 317 315 315 314 317 328 326 316 317 317 316 318 317 317 319 319 321 321 319 318 318 318 318 316 314 310 306 306 307 306 306 306 306 306 306 305 306 305 305 306 306 306 306 306 306 306 306 306 306 305 305 305 305 305 305 305 304 303 303 302 302 301 300 299 298 297
320 323 322 318 317 316 315 316 315 315 319 320 318 318 317 315 315 315 317 320 319 317 317 313 315 323 324 317 315 316 316 317 316 316 318 321 321 319 318 318 318 318 317 315 313 308 306 306 306 306 306 306 305 305 305 305 304 304 304 304 305 305 304 304 304 304 305 305 305 305 305 305 304 303 302 300 299 298 297 296 296 295 295 294 294 294
316 320 322 320 319 319 318 318 317 316 316 318 318 316 316 319 319 316 315 316 318 322 323 317 316 320 321 317 315 314 313 313 313 312 315 321 322 319 318 318 318 317 316 314 313 310 307 306 306 306 306 305 305 305 304 304 303 303 303 303 304 304 303 303 304 304 304 304 304 303 302 301 299 298 296 295 294 294 294 293 293 293 293 293 293 293
318 318 319 320 319 318 318 316 317 318 316 316 318 317 317 320 320 317 316 316 318 323 322 318 317 318 316 314 314 314 313 312 312 311 312 318 321 319 319 318 317 316 314 313 312 311 309 307 306 306 306 305 305 304 303 303 303 303 302 303 303 303 303 303 303 303 302 301 300 298 296 295 294 294 294 293 293 293 293 293 293 293 293 292 292 292
324 318 314 316 316 315 315 315 318 321 318 316 318 319 319 320 320 318 316 317 318 321 321 319 318 316 314 314 313 314 315 313 312 311 311 316 321 320 319 318 316 315 313 312 311 310 310 309 306 305 305 305 304 303 303 302 302 302 302 302 302 303 303 301 300 299 297 296 295 294 293 293 293 293 293 292 292 292 292 292 292 292 292 292 292 291
326 318 314 316 315 315 315 316 320 320 318 317 317 317 318 318 319 319 318 317 317 318 318 318 318 317 314 314 315 316 317 313 312 311 311 315 321 320 318 318 316 314 313 312 311 310 311 310 307 304 304 304 303 303 302 302 301 301 301 301 301 301 300 298 296 295 294 294 293 293 292 292 292 292 292 292 292 292 292 292 292 292 291 291 291 291
319 315 318 317 315 316 317 317 321 320 317 317 317 317 317 317 318 319 317 316 316 317 316 315 317 318 314 314 316 317 317 315 313 311 310 315 321 320 318 317 316 314 314 312 311 310 310 310 306 303 303 303 302 302 302 301 301 300 299 299 298 297 296 295 294 293 293 293 292 292 292 292 292 292 292 292 291 291 291 291 291 291 291 291 291 291
317 316 318 316 315 317 317 317 321 322 319 318 317 317 317 317 317 317 316 315 315 316 316 315 316 316 314 316 317 317 318 317 315 313 311 316 321 319 317 316 315 314 313 312 311 310 309 307 304 302 302 302 301 301 301 300 299 298 297 297 296 295 294 293 293 293 292 292 292 291 292 292 291 291 291 291 291 291 291 290 291 291 291 291 290 290
316 318 318 316 315 316 315 316 320 322 322 321 320 320 319 319 318 317 316 316 315 315 315 315 316 316 314 316 318 320 321 319 317 315 313 315 318 318 316 315 314 313 313 312 311 310 310 307 303 301 302 301 301 301 300 299 298 296 296 295 295 294 293 292 292 292 292 291 291 291 291 291 291 291 290 290 290 290 290 290 290 290 290 290 290 290
315 318 317 315 315 316 315 315 317 320 321 321 321 323 323 321 320 318 316 315 315 315 315 316 316 314 313 314 318 322 321 318 318 317 314 315 318 317 316 315 314 313 312 311 311 310 310 308 304 301 301 301 301 300 299 298 296 295 295 294 293 292 292 292 292 292 291 291 291 291 291 290 290 290 290 290 290 290 290 290 290 290 290 290 290 290
314 317 317 316 315 315 315 316 318 320 320 318 317 319 322 322 319 317 317 316 315 315 316 316 314 313 313 314 315 318 319 317 317 316 314 316 318 317 316 315 313 312 312 311 311 310 309 306 303 301 301 301 300 299 298 297 295 294 294 293 292 291 291 291 291 291 291 290 290 290 290 290 290 290 290 290 290 289 290 289 290 289 289 289 289 289
314 316 318 316 314 315 317 318 319 318 318 316 314 314 318 319 319 319 318 316 316 315 314 314 313 312 313 314 315 317 317 316 315 315 314 315 317 316 315 314 312 312 311 311 311 310 305 303 302 301 300 300 299 298 297 296 294 293 293 292 292 291 291 291 291 290 290 290 290 290 289 289 289 289 289 289 289 289 289 289 289 289 289 289 289 289
315 316 317 316 315 317 318 319 318 316 315 314 313 314 315 315 317 319 318 316 315 315 314 314 313 313 314 316 317 317 317 315 315 315 315 315 315 316 315 314 313 312 312 312 312 309 303 301 301 300 299 299 298 297 296 295 293 292 292 291 291 291 291 290 290 290 290 289 289 289 289 289 289 289 289 289 289 289 289 289 289 288 288 288 288 288
315 315 315 317 319 319 318 317 318 318 317 314 314 314 314 314 316 317 318 316 314 314 315 315 313 313 314 315 316 319 320 316 315 316 317 317 317 317 316 314 313 313 312 311 310 306 302 301 300 298 297 297 296 296 295 293 292 291 291 291 290 290 290 290 289 289 289 289 289 289 289 289 289 289 289 289 289 289 288 288 288 288 288 287 287 287
313 313 315 317 318 318 317 316 316 317 317 317 315 314 312 313 314 315 316 315 313 313 315 314 313 314 313 313 317 322 320 315 314 316 317 318 319 320 319 316 313 312 311 308 306 304 302 300 299 297 296 296 295 294 293 291 291 291 291 290 290 289 289 289 289 288 288 288 288 289 289 288 288 289 288 288 288 288 288 288 287 287 287 287 287 287
315 314 315 315 316 317 317 316 316 316 316 315 314 314 313 312 314 316 316 315 314 314 314 314 314 314 313 314 320 321 316 313 315 316 315 318 321 321 320 316 310 307 307 304 303 302 300 299 298 296 295 294 294 293 292 291 291 290 290 290 289 288 288 288 288 288 288 288 288 288 288 288 288 288 288 288 287 287 287 287 287 287 286 286 286 286
317 317 316 315 316 318 316 316 316 315 314 314 316 318 317 316 317 317 316 315 313 312 314 314 315 314 313 316 320 318 315 315 316 313 313 318 320 318 319 316 307 303 303 303 301 299 298 297 296 295 294 293 293 292 291 290 290 290 290 289 288 288 288 287 287 287 287 288 288 288 288 288 287 287 287 287 287 286 286 286 286 286 286 286 286 286
315 316 318 316 316 317 316 315 315 313 314 319 324 323 318 316 317 318 316 315 313 313 314 313 314 314 314 318 320 317 314 315 314 313 316 319 316 311 312 312 306 300 300 300 299 298 297 296 295 294 293 293 292 292 291 290 290 290 289 288 287 287 287 287 287 287 287 287 287 287 287 287 287 287 287 286 286 286 286 286 286 286 286 286 286 286
314 314 316 316 315 317 316 315 315 313 315 321 324 319 316 316 316 315 314 314 315 318 317 314 314 314 314 318 318 313 312 316 317 315 314 316 315 310 304 302 301 299 298 298 297 296 295 294 293 292 292 292 292 291 291 290 290 289 287 287 286 286 286 286 286 286 286 286 286 286 286 286 286 286 286 286 286 286 285 285 285 285 285 286 286 286
314 314 315 315 315 315 315 315 315 315 317 321 319 313 313 315 314 314 316 318 322 323 319 314 315 314 315 317 315 312 316 320 318 314 311 311 313 309 301 297 297 296 296 295 295 294 293 291 290 290 290 290 291 291 290 290 289 287 286 285 285 285 285 285 286 286 286 286 286 286 286 285 285 285 285 285 285 285 285 285 285 285 286 286 286 286
314 314 314 314 314 314 315 315 315 315 316 317 316 313 314 315 316 319 322 320 322 326 322 315 315 316 316 316 315 315 319 319 315 313 310 307 306 304 299 296 295 294 293 293 293 292 291 289 287 287 288 289 290 290 290 289 287 285 284 284 284 284 285 285 285 286 286 286 285 285 285 285 285 285 285 285 284 284 285 286 286 286 286 285 285 284
314 314 315 314 313 314 314 313 315 317 315 314 315 316 315 316 318 322 323 320 321 324 322 317 318 317 316 318 318 318 319 317 313 310 307 304 302 300 297 294 293 292 292 292 290 290 289 287 285 285 285 287 288 288 288 288 286 284 283 284 284 284 284 285 285 286 285 285 285 284 284 284 285 284 284 284 285 285 286 286 286 285 285 283 281 280
313 313 315 314 313 314 316 316 319 321 317 314 316 317 316 318 321 322 323 323 322 319 317 319 321 318 316 320 322 319 317 315 310 307 305 302 299 297 295 294 292 292 291 290 289 288 287 285 283 283 283 285 286 286 286 287 287 285 284 283 284 284 284 285 285 285 284 284 284 284 284 284 284 284 284 284 285 286 286 285 284 283 282 280 279 279
316 316 316 315 314 315 316 318 319 319 316 314 315 315 314 316 318 318 319 320 319 316 314 316 318 317 317 320 321 319 317 313 307 303 301 299 297 295 293 292 291 290 289 288 287 286 285 283 282 281 281 282 283 284 284 285 286 286 284 283 284 284 284 284 284 284 284 284 284 284 284 284 284 284 285 285 285 285 284 283 281 280 280 279 279 278
316 315 314 316 317 315 314 314 315 316 317 316 313 312 313 313 312 313 315 317 314 312 310 310 311 312 312 313 315 315 311 306 303 301 298 296 296 294 292 290 289 288 288 287 286 285 283 282 280 279 279 279 280 282 282 283 284 285 284 283 283 283 284 284 283 283 283 283 283 283 283 284 285 285 285 285 285 284 283 281 279 278 279 279 278 277
314 313 314 317 317 314 313 315 315 314 314 313 311 313 316 316 313 310 309 309 308 307 307 307 307 308 308 307 309 310 306 303 302 300 297 295 294 292 290 288 287 287 286 286 285 283 282 281 279 278 278 277 278 279 280 281 282 283 283 282 282 283 283 283 283 282 283 283 283 283 284 284 284 284 284 284 283 282 281 280 279 278 278 277 277 276
311 312 315 317 315 313 313 315 314 312 311 310 311 313 314 315 315 310 306 306 308 309 309 307 305 306 307 308 308 309 306 302 300 299 296 295 293 291 288 287 286 285 285 284 284 283 282 280 279 278 277 276 276 277 279 280 280 281 281 281 282 282 282 282 282 282 282 283 283 283 283 283 283 283 282 282 281 280 279 278 278 277 277 277 276 275
310 313 315 316 315 314 314 315 313 314 315 314 311 310 309 311 313 313 310 309 308 308 309 308 305 303 303 304 305 309 309 303 299 298 296 294 292 289 287 285 284 284 284 283 283 282 281 280 279 278 276 275 276 277 278 279 279 280 280 281 281 281 281 281 281 282 282 283 282 282 282 282 281 281 280 279 279 279 279 279 278 277 276 276 276 275
311 313 314 315 315 312 312 313 314 314 315 311 306 306 308 309 311 314 313 309 305 305 307 308 307 306 304 301 300 304 308 304 298 297 296 293 290 288 286 284 284 283 282 282 282 281 280 279 277 277 275 274 275 276 278 279 279 279 280 280 281 281 281 281 282 282 282 281 281 281 280 280 280 279 278 277 277 277 277 278 278 277 276 276 275 274
Wind_Speed
5 3 4 5 5 7 7 8 8 5 4 7 7 5 3 4 2 3 2 2 0 2 6 8 7 7 8 8 8 8 8 7 7 8 7 7 6 6 7 7 7 7 6 10 16 22 25 24 24 24 23 25 24 24 25 25 25 26 26 26 26 27 25 23 24 24 24 24 23 22 22 22 21 21 21 20 19 19 18 18 18 19 19 20 20 20
6 5 5 6 7 7 8 9 7 3 3 4 8 6 4 4 2 2 2 1 2 1 5 7 8 9 8 7 7 6 8 8 8 9 8 8 8 7 8 8 8 6 4 8 11 16 22 23 23 24 24 26 26 26 26 27 27 26 27 26 26 26 27 26 25 26 26 26 25 23 23 22 20 19 20 20 18 17 17 18 19 19 20 21 21 21
5 6 6 9 9 7 8 10 7 2 3 1 3 5 4 3 3 2 3 1 2 1 1 1 3 7 7 7 7 7 8 8 9 10 9 10 9 8 9 9 8 6 5 7 8 12 19 21 22 23 24 26 27 27 27 27 28 27 27 27 26 25 27 28 26 25 26 25 24 22 20 19 19 18 19 20 19 18 19 19 20 20 21 22 21 21
5 5 6 8 8 5 5 8 6 2 2 0 2 4 4 3 4 1 1 1 2 1 1 3 3 5 6 6 8 9 9 7 8 10 10 9 10 9 8 7 8 9 8 8 7 9 15 18 20 22 24 25 25 25 27 27 27 28 28 28 27 26 26 27 27 25 24 23 21 20 17 15 16 16 17 19 19 20 21 22 21 20 20 20 20 20
5 2 3 3 6 5 2 5 5 3 2 3 2 2 3 5 4 2 3 3 2 1 1 2 4 5 6 8 9 8 9 9 8 8 9 8 8 7 4 4 5 7 8 9 8 9 13 16 19 22 24 24 24 25 26 28 28 28 29 28 28 27 26 26 27 26 23 21 21 20 17 15 16 15 15 16 18 19 21 21 20 19 18 17 18 18
5 1 2 1 6 6 4 3 5 5 3 3 2 1 2 5 7 7 6 4 2 1 2 2 1 6 5 8 10 6 7 9 7 7 9 7 6 5 5 5 5 4 4 6 7 6 11 16 18 20 21 23 25 26 26 26 27 26 27 27 27 27 26 25 25 26 24 22 22 23 22 21 19 17 17 17 17 18 20 21 20 18 17 16 16 16
1 1 2 3 6 6 5 3 4 6 3 3 3 1 2 8 9 8 7 4 3 2 2 2 3 5 4 4 7 5 6 7 5 6 8 7 6 6 6 7 5 5 5 5 4 4 7 13 16 17 20 22 23 24 23 23 23 23 23 25 26 26 26 25 24 25 26 24 23 24 24 23 22 20 19 17 16 16 17 17 16 16 17 17 17 16
2 2 2 3 6 5 5 3 4 7 4 3 3 3 5 9 8 7 6 3 2 2 2 2 2 2 4 5 4 5 5 5 5 7 8 7 7 7 6 6 6 6 5 6 5 4 5 8 10 12 15 17 17 17 19 21 21 21 20 22 24 24 24 25 24 25 27 27 25 23 22 21 20 19 16 13 12 13 13 12 11 11 11 13 14 14
1 3 2 4 5 3 4 1 2 7 4 2 3 3 2 6 6 7 5 2 2 3 1 3 1 0 4 6 2 3 3 5 7 9 9 8 8 7 7 6 5 5 5 5 5 5 6 7 7 8 10 12 13 14 17 19 20 20 19 20 22 22 23 24 25 24 26 27 25 23 21 19 18 16 15 12 10 10 11 11 11 11 10 10 11 13
1 3 2 3 4 3 3 2 3 3 4 4 3 3 5 5 4 4 4 3 3 1 3 5 5 2 4 5 3 3 3 6 8 7 7 7 7 6 6 6 5 4 4 4 4 3 5 6 6 6 8 10 11 12 14 16 18 19 18 19 21 21 21 22 23 23 24 24 23 22 21 19 18 16 15 13 11 11 11 11 11 12 12 12 12 13
0 1 0 1 2 2 3 2 4 1 5 5 4 5 6 5 5 3 1 4 3 2 3 4 5 3 3 5 5 4 4 5 5 3 5 6 6 6 5 5 5 5 5 4 4 5 6 6 5 6 7 7 8 10 12 14 16 19 20 20 20 19 19 20 21 22 22 22 20 20 20 19 17 14 14 13 13 12 12 12 11 10 11 12 12 12
2 2 1 1 1 2 3 3 5 3 4 4 3 5 5 4 4 4 3 3 1 3 3 3 2 1 3 5 3 3 3 2 3 4 7 7 6 6 5 4 4 4 5 5 5 5 7 6 7 8 8 8 9 10 12 13 16 19 20 20 20 19 18 18 20 20 21 21 18 17 17 16 14 13 12 12 11 9 10 9 7 6 7 7 7 9
3 2 2 1 1 2 3 3 4 4 3 1 3 6 5 1 1 1 1 1 2 3 3 2 3 1 5 6 6 6 5 5 3 3 7 8 7 6 5 5 4 3 4 5 5 5 5 6 8 11 11 11 12 12 13 14 16 18 19 21 21 20 18 18 19 19 19 19 17 15 15 15 14 13 11 10 8 6 5 4 4 4 4 5 5 6
2 1 1 2 0 2 3 4 3 1 2 3 5 6 5 4 2 2 3 2 3 3 4 3 2 2 4 5 9 11 7 5 5 5 6 8 8 7 6 6 5 4 4 5 5 5 5 6 9 11 12 12 13 13 13 14 16 18 19 21 22 20 19 19 19 19 19 18 16 14 14 14 13 12 10 8 7 5 4 3 3 3 3 3 3 4
5 1 2 3 1 2 4 3 3 5 4 5 5 4 4 4 3 4 4 3 3 1 2 3 1 3 3 3 6 5 1 4 6 6 7 7 7 7 6 5 5 5 5 5 5 5 6 7 9 11 12 13 13 14 14 15 15 17 18 19 20 19 19 19 19 18 18 17 15 14 13 12 10 10 9 7 6 6 6 6 5 5 4 5 4 5
7 3 1 1 2 2 3 1 1 5 4 3 2 4 3 4 4 3 2 3 4 2 0 2 2 5 4 3 4 3 4 6 6 4 6 6 5 6 5 5 5 5 5 5 6 5 6 9 10 11 12 12 13 14 14 14 15 17 18 18 18 18 17 17 17 16 16 15 14 13 13 12 11 11 10 8 8 7 6 5 4 4 4 5 6 7
6 2 3 2 2 1 2 1 2 2 2 1 2 3 4 2 6 5 1 0 3 1 2 3 3 5 3 4 4 5 5 4 4 4 5 6 6 6 6 5 5 5 5 5 5 5 7 9 10 10 11 12 13 14 14 14 15 16 18 20 19 19 18 17 17 16 16 16 15 14 14 13 12 12 10 8 6 4 2 1 1 1 2 3 4 5
5 2 2 1 1 1 0 1 2 1 2 3 3 4 2 1 3 3 1 1 2 2 2 4 5 4 2 3 1 5 5 5 6 6 5 6 6 6 6 6 6 6 6 6 6 6 7 9 10 10 11 12 12 13 14 14 15 16 17 19 20 20 19 19 18 17 16 16 16 14 13 12 10 9 8 5 4 3 2 3 3 2 2 1 2 3
5 4 2 2 1 1 0 2 2 1 1 3 2 1 2 1 1 1 3 2 2 3 3 3 6 4 4 4 2 4 8 8 8 7 7 7 7 7 6 6 7 6 6 6 6 6 7 9 10 10 11 11 12 12 13 14 14 16 17 17 19 19 18 18 18 17 16 15 15 14 12 11 9 8 7 7 7 7 7 7 7 6 6 6 6 7
4 4 1 2 1 1 1 0 4 3 0 1 1 2 2 2 2 3 3 3 3 3 3 3 3 4 5 6 6 8 9 10 9 8 8 9 8 7 7 7 7 6 6 6 6 5 6 10 10 10 11 12 12 13 13 14 15 15 16 16 18 18 18 18 17 17 17 16 15 14 13 12 11 11 11 11 11 12 12 11 11 10 10 11 11 12
2 3 3 1 2 1 1 2 5 6 4 2 1 2 2 1 2 1 2 2 3 3 3 3 3 5 5 5 7 9 7 7 10 10 8 8 8 7 7 8 7 7 6 6 6 5 6 10 11 11 11 12 13 13 14 15 16 17 17 17 18 19 19 19 18 18 18 17 16 16 16 15 15 15 15 15 15 15 15 14 14 14 14 14 14 14
1 2 4 3 1 2 1 2 0 3 5 5 3 5 6 4 3 1 3 3 2 2 3 3 3 6 5 2 1 3 3 1 5 9 8 7 9 8 7 8 8 7 7 6 6 6 7 10 11 11 12 12 13 14 14 15 16 17 18 18 19 20 20 19 19 19 19 18 18 19 19 19 19 18 18 18 18 18 18 17 17 16 16 16 16 15
2 4 5 3 2 2 0 1 1 1 2 2 2 3 4 4 4 4 4 4 2 1 1 2 2 6 5 2 4 3 3 4 1 5 8 7 8 8 8 8 8 7 7 7 7 6 9 11 12 12 12 12 13 14 14 15 16 17 18 18 19 20 20 20 20 20 21 22 22 22 22 22 21 21 20 21 21 20 19 19 18 17 17 16 16 15
2 4 4 2 2 2 2 0 1 1 1 1 3 4 4 4 5 5 4 3 2 2 2 2 3 6 6 3 4 4 2 3 4 1 6 7 6 7 8 8 8 7 7 7 7 7 10 12 12 12 12 13 13 13 14 15 16 17 18 19 21 21 21 21 22 23 23 24 24 24 24 24 23 22 22 22 21 20 19 18 17 17 16 16 16 16
3 3 4 4 2 2 2 1 1 2 3 3 3 4 3 2 3 3 1 1 1 4 6 5 5 6 5 4 3 3 3 2 4 3 2 6 6 6 7 7 7 8 8 8 7 7 8 9 10 11 12 13 13 14 15 16 17 18 19 20 22 23 23 23 23 24 25 26 26 25 24 24 23 22 22 21 20 19 19 18 17 16 16 16 16 16
5 5 5 5 5 5 5 5 4 3 2 1 1 2 5 4 5 4 2 2 3 5 6 5 5 6 4 4 3 4 3 3 5 4 3 3 7 7 7 7 7 7 8 8 8 7 7 7 9 11 12 13 14 14 15 17 18 20 20 21 22 23 24 23 23 25 26 26 26 25 24 23 22 22 21 20 19 19 18 17 16 16 16 15 16 16
3 4 7 9 8 8 8 5 4 7 5 5 6 7 9 9 9 6 3 4 6 5 4 5 6 8 7 4 4 6 5 6 6 6 5 4 7 8 8 7 6 7 7 7 7 7 7 7 9 12 14 14 15 15 16 18 19 21 22 21 21 22 23 23 24 26 26 26 26 25 24 23 22 21 20 19 18 17 16 16 16 15 15 15 15 16
4 3 7 11 12 11 9 7 6 9 7 10 13 13 12 11 11 8 6 9 8 5 7 8 8 12 13 8 7 8 7 6 6 7 8 6 7 7 7 7 7 7 7 7 8 8 8 8 8 12 14 15 16 16 17 18 19 21 22 22 22 22 23 24 25 27 26 26 26 25 23 22 21 20 19 18 17 16 16 15 15 15 15 15 16 17
5 6 7 10 11 10 7 6 6 9 9 10 12 14 14 13 12 12 12 14 11 7 9 13 13 15 15 8 8 9 8 8 8 9 8 6 7 7 8 9 8 8 8 8 9 9 9 8 8 12 15 16 17 18 18 19 20 21 23 23 23 23 24 25 26 27 26 25 25 23 22 21 19 18 17 16 16 15 15 15 15 15 16 16 17 18
3 5 7 10 11 10 8 5 3 5 7 9 11 13 13 13 14 14 15 17 15 13 14 16 15 15 12 7 7 8 8 7 6 6 7 8 9 9 10 10 9 9 9 10 10 9 8 8 9 13 16 16 18 19 19 20 20 22 23 23 24 24 24 25 26 26 25 24 23 21 20 19 18 17 16 15 15 15 15 15 15 16 16 17 17 19
1 4 6 8 7 10 10 8 6 5 6 7 8 10 10 11 12 14 15 15 14 14 16 16 13 13 11 7 5 4 3 6 6 7 9 9 9 9 10 9 10 11 11 10 10 9 8 9 11 14 16 17 19 20 21 21 21 22 23 23 24 24 24 25 26 25 24 23 22 20 19 18 17 16 15 15 15 15 15 15 15 16 16 17 18 19
2 3 4 7 5 8 10 13 12 7 2 4 6 7 9 11 11 13 14 14 13 12 13 13 11 12 11 7 5 4 6 7 8 9 8 7 8 10 11 11 12 12 12 11 10 10 10 10 12 15 18 20 21 21 22 23 23 23 24 24 25 25 25 25 25 25 23 22 20 19 18 17 16 15 15 15 15 15 15 15 15 16 16 17 19 20
5 5 4 7 6 7 9 12 10 4 2 5 8 9 12 12 11 11 11 12 13 12 10 10 12 14 11 7 8 7 6 8 9 8 7 7 9 11 11 13 13 13 12 12 12 12 11 12 15 18 20 21 22 23 23 24 25 25 25 26 26 26 26 25 24 24 22 20 19 17 17 15 15 15 14 14 14 14 14 15 15 16 17 18 20 21
6 6 4 6 5 6 5 7 5 3 5 11 12 13 14 13 12 10 10 13 14 12 11 11 13 14 10 8 10 9 7 8 9 8 9 9 9 10 11 11 12 12 12 11 11 10 10 14 18 21 22 23 24 24 24 25 26 26 26 27 26 26 25 24 23 22 21 19 18 16 16 15 14 14 14 13 13 13 14 15 16 17 18 19 21 22
7 5 4 4 3 2 4 7 4 8 13 13 10 10 11 12 12 13 14 17 17 15 14 15 16 13 9 8 9 9 9 10 9 10 10 9 9 10 11 11 11 12 11 10 10 10 13 18 22 23 24 25 26 26 26 26 27 27 27 26 26 25 24 24 23 21 19 18 17 15 15 14 13 13 13 12 12 13 14 15 16 17 19 20 21 22
8 6 4 3 3 2 3 5 7 8 8 6 6 7 9 10 11 12 14 17 16 13 12 13 16 15 13 11 9 6 5 6 6 8 9 9 9 10 10 11 12 12 13 14 15 16 20 24 26 27 28 28 28 28 28 28 29 29 27 26 25 23 22 23 22 20 18 17 16 14 14 13 12 12 12 11 12 13 14 15 16 17 19 20 21 23
8 8 4 4 4 4 3 5 4 5 5 4 7 9 11 11 10 9 10 13 12 10 11 13 16 18 16 11 6 1 1 2 3 7 8 8 8 9 11 13 14 15 15 16 19 21 24 27 28 29 30 30 29 30 30 30 29 29 28 25 23 21 21 21 21 19 17 16 15 14 13 12 11 10 11 11 12 13 14 15 16 18 19 21 22 24
4 6 6 6 4 4 4 3 2 3 8 11 9 7 8 11 9 7 5 10 11 12 14 15 16 17 14 7 4 4 3 3 5 8 8 8 8 9 10 10 12 15 16 19 22 23 26 28 29 30 31 31 30 30 31 31 30 29 28 24 22 20 20 20 19 18 16 15 14 12 11 10 10 9 10 11 12 13 14 15 16 18 19 21 23 24
3 2 5 6 4 4 6 4 4 6 10 10 7 4 7 10 8 7 4 11 15 12 11 11 12 14 12 6 6 7 5 4 8 8 8 9 10 9 7 5 7 13 19 25 29 30 31 32 32 31 31 32 31 31 31 31 30 29 27 23 21 20 19 19 18 17 16 14 13 11 10 9 9 9 10 11 12 13 14 15 17 18 20 21 23 24
2 1 3 6 6 5 6 5 5 5 8 7 7 7 8 11 12 9 6 13 10 6 8 10 12 13 10 8 8 7 7 9 9 7 4 6 5 4 6 7 9 15 20 24 29 32 34 35 35 33 32 33 33 32 31 31 30 29 26 23 21 20 19 18 17 16 15 13 12 11 9 8 8 9 10 10 11 12 14 15 17 18 20 22 23 25
2 1 2 6 7 6 7 6 4 4 7 6 7 8 10 13 10 9 10 8 3 9 10 12 12 12 10 9 8 8 8 7 4 0 2 6 7 5 7 10 13 17 21 25 29 32 33 32 32 31 30 31 33 32 31 31 30 27 25 23 21 20 18 17 17 16 14 13 11 9 8 8 8 9 9 10 11 12 14 15 17 19 21 23 25 27
4 4 3 5 6 5 5 4 3 6 6 5 4 3 9 11 7 9 7 2 4 8 8 9 10 11 9 9 9 9 5 3 5 5 5 7 8 6 8 13 16 17 20 25 28 30 30 28 27 28 27 28 30 30 30 31 29 27 24 23 20 19 18 17 16 15 13 12 10 9 8 8 8 9 9 10 12 13 14 15 17 20 22 24 27 29
6 5 4 5 6 4 4 5 5 8 4 9 9 2 4 6 6 5 3 1 2 4 4 5 6 7 7 8 9 7 6 5 5 6 6 6 7 8 9 12 15 17 21 24 26 28 30 28 26 26 26 26 27 28 29 30 29 26 24 22 20 19 18 17 16 14 12 11 9 9 8 8 8 8 9 11 12 13 15 16 18 21 23 25 27 27
7 6 5 5 6 5 5 7 7 5 4 8 9 5 6 7 4 4 5 3 2 2 2 3 4 4 5 8 7 6 7 6 5 7 7 6 6 7 8 11 15 18 21 23 25 27 30 29 26 25 25 24 26 26 27 28 28 26 23 21 20 19 17 16 15 13 11 10 9 8 7 7 8 8 9 11 12 14 16 18 20 22 23 24 24 24
8 8 6 5 6 6 6 7 6 4 4 4 3 3 5 6 4 5 6 4 1 3 3 3 3 3 4 7 7 6 5 6 7 7 7 7 7 8 9 11 15 19 20 22 25 27 28 29 28 27 25 23 25 26 25 26 27 26 23 21 20 19 17 15 14 12 11 10 8 8 6 6 7 8 9 11 13 15 17 19 20 22 22 23 23 23
4 5 5 4 4 4 5 7 5 3 3 1 1 1 2 4 4 4 6 5 2 2 3 2 2 3 4 5 6 6 7 7 8 7 7 8 8 8 10 12 15 19 21 23 24 26 27 29 29 28 26 23 23 25 24 24 25 25 23 21 20 18 16 15 13 11 10 9 7 7 6 5 6 7 9 11 13 15 17 18 19 20 21 22 22 22
2 3 5 4 5 5 7 9 7 5 4 4 2 1 1 1 2 3 4 4 3 2 3 2 1 1 3 3 3 4 4 6 8 7 6 7 8 8 9 11 14 18 21 22 24 27 28 28 27 27 27 25 23 24 24 23 22 23 23 21 19 17 15 14 13 11 9 8 7 6 5 5 6 8 10 11 13 15 16 17 17 18 19 20 20 20
2 4 5 5 6 7 7 6 3 3 4 4 3 1 2 3 2 4 5 5 5 4 3 2 3 3 2 2 4 6 6 7 8 8 7 7 7 7 8 11 15 18 20 22 25 27 27 26 25 26 27 26 24 24 24 23 22 22 22 20 18 17 15 13 12 11 9 8 6 5 5 6 7 9 10 12 14 15 16 17 16 16 17 16 16 18
3 4 4 5 6 6 5 3 2 3 1 3 4 5 5 4 5 5 5 5 6 5 4 3 2 2 4 6 7 8 8 7 7 9 9 8 7 8 10 14 17 19 21 23 26 27 27 26 27 27 27 26 25 24 24 23 22 22 20 19 17 16 14 13 12 11 9 7 6 5 6 6 8 9 10 12 13 14 14 14 15 15 16 14 12 14
4 4 3 4 6 7 6 4 4 3 1 3 3 4 3 3 6 6 4 4 4 4 5 4 2 3 2 5 8 9 9 8 7 8 9 8 8 11 15 18 19 20 22 23 24 24 25 25 27 28 27 26 26 25 24 23 22 21 19 18 17 15 14 13 12 10 8 7 6 6 6 7 7 8 10 11 13 14 15 15 14 15 15 14 12 13
4 4 4 4 5 5 3 1 4 5 3 2 1 2 1 4 7 5 5 5 5 5 6 5 3 1 0 2 5 8 10 9 10 11 9 8 12 17 21 23 23 23 24 25 25 25 24 24 26 27 27 27 26 25 24 23 22 20 19 17 16 15 13 12 11 10 8 7 6 7 7 7 8 8 9 10 12 14 18 20 20 18 16 15 15 16
Wind_Direction
178 163 194 208 208 202 209 225 223 224 215 178 185 232 199 143 127 85 76 309 347 155 212 217 226 236 234 232 213 185 184 192 189 187 197 203 204 205 200 206 205 204 205 183 180 185 185 185 186 187 188 188 190 193 194 194 195 195 195 197 201 201 198 197 197 199 201 202 203 207 212 217 221 224 225 227 228 230 233 237 241 246 248 246 244 244
173 197 204 199 217 211 203 226 226 245 280 191 176 205 205 155 139 44 65 296 343 72 212 220 230 246 242 240 240 196 180 193 195 192 200 203 200 202 202 209 210 197 164 154 153 162 171 177 182 186 189 190 191 193 195 198 198 198 197 197 200 201 199 198 198 199 201 204 205 206 210 213 216 220 222 224 225 227 230 232 235 239 242 242 244 243
185 217 202 191 219 224 205 219 220 226 289 276 144 170 199 176 130 53 24 29 8 32 265 268 238 256 258 248 246 227 211 208 199 195 198 200 201 203 202 205 205 185 156 162 156 155 164 170 177 183 189 193 196 197 198 200 200 200 200 200 200 201 201 200 200 202 204 205 206 206 209 212 215 219 222 225 227 227 227 232 236 238 243 245 247 247
188 210 211 197 202 210 198 195 191 208 276 258 133 156 181 168 138 179 264 45 356 85 60 5 321 274 270 269 254 233 226 225 213 204 197 195 199 199 192 190 193 181 172 179 176 171 173 174 179 185 190 194 196 198 199 200 201 202 202 202 201 200 202 202 201 203 205 204 204 205 204 207 212 213 218 223 227 230 230 234 238 239 245 248 248 250
186 188 284 228 176 174 156 156 163 174 236 242 208 179 181 165 135 95 146 132 11 24 109 17 335 290 238 234 250 236 217 223 216 198 195 198 196 186 171 172 180 172 165 171 177 174 174 180 188 193 196 196 196 198 200 201 201 202 203 203 202 201 202 204 203 201 201 200 198 197 195 198 203 206 209 211 214 222 226 228 232 238 244 246 246 248
202 243 323 195 167 178 168 169 181 170 207 250 214 253 221 155 121 103 134 131 59 299 256 104 39 290 244 215 237 226 201 215 200 184 200 207 198 192 204 210 197 187 173 167 177 175 173 182 190 195 199 200 201 202 202 203 203 202 203 203 202 201 201 202 202 200 198 196 194 194 195 197 199 204 210 212 212 216 222 226 230 233 233 234 238 242
187 1 351 160 161 174 175 197 196 165 189 243 228 284 99 115 116 130 157 151 114 213 285 90 160 266 310 274 244 194 177 205 187 197 219 214 208 207 214 220 205 203 203 181 192 200 178 179 181 187 195 200 204 205 202 201 200 200 201 201 200 200 199 199 199 199 198 196 196 196 199 203 205 209 216 222 223 224 228 232 236 239 235 234 239 243
115 77 11 148 143 151 166 199 195 167 180 244 285 334 101 115 130 148 156 171 154 130 357 13 158 248 303 290 256 145 156 208 200 218 232 219 209 199 194 201 185 175 168 161 181 204 205 196 185 186 195 200 205 205 203 201 197 196 196 195 196 195 196 196 196 198 198 198 198 198 201 206 210 213 215 217 223 229 231 230 233 238 235 236 240 244
60 143 170 145 137 152 165 217 211 165 166 233 285 336 92 123 141 150 145 158 98 75 328 266 189 247 267 259 247 134 168 230 224 220 220 208 193 178 169 162 148 139 129 140 171 188 199 205 201 196 191 191 196 198 199 198 194 192 190 189 189 190 192 193 194 196 197 199 200 201 203 205 207 209 206 204 212 222 221 217 220 221 219 222 229 235
359 163 182 135 142 159 134 8 319 163 162 208 200 53 53 69 91 126 146 129 87 76 238 222 188 197 275 255 216 181 210 230 233 224 201 182 164 151 142 134 131 136 136 155 182 164 150 163 172 170 165 171 181 189 194 196 194 190 187 185 183 185 189 190 192 194 195 197 200 201 203 202 203 204 201 201 207 209 205 205 213 219 222 225 228 234
235 148 169 96 137 166 129 65 356 77 130 147 145 85 59 41 41 40 80 96 87 252 239 215 188 170 278 263 199 189 226 219 214 194 144 133 133 131 125 136 149 150 154 167 165 133 121 133 157 157 156 169 181 186 190 193 193 190 187 184 182 183 188 189 189 193 193 192 193 197 199 199 200 198 194 200 210 212 210 213 217 220 228 233 233 236
69 64 108 87 236 219 141 87 13 19 104 110 131 115 79 27 30 24 1 61 117 244 259 301 325 134 226 257 224 207 226 182 154 159 155 149 143 139 132 134 135 130 148 156 144 135 134 142 159 155 148 154 162 168 174 178 181 182 182 180 177 177 183 185 184 187 188 184 182 188 191 190 189 189 192 201 212 220 220 228 237 240 252 260 255 256
73 71 135 94 281 230 150 102 36 1 346 19 144 126 109 83 60 64 257 188 207 246 262 298 335 259 233 251 256 257 234 180 147 131 154 156 143 138 139 132 127 130 141 142 138 141 147 151 155 148 141 144 148 150 156 162 166 168 171 172 169 167 171 175 175 176 178 176 175 177 180 180 180 185 195 199 204 215 223 244 271 273 288 307 303 302
78 6 171 126 305 226 176 140 124 206 258 212 167 138 139 145 125 201 204 195 222 264 285 278 291 262 271 266 247 250 245 185 140 108 120 134 137 141 144 139 138 136 121 116 119 118 120 132 138 137 135 136 138 140 144 149 156 160 164 166 162 159 161 163 164 166 169 170 171 170 172 175 179 185 190 190 191 198 201 212 227 235 257 277 297 313
162 222 200 162 175 187 179 169 150 160 177 207 186 144 166 174 158 186 183 181 201 230 314 298 272 194 214 254 230 225 212 101 106 105 106 112 126 130 129 141 145 131 116 105 100 98 99 106 114 119 123 126 129 134 138 141 149 156 162 165 161 157 159 160 160 162 163 165 166 165 163 165 172 177 175 174 180 187 191 201 211 221 238 250 262 272
170 206 282 235 256 164 167 257 49 126 157 225 172 117 203 213 143 140 176 175 158 105 291 247 247 217 207 246 226 156 96 92 98 107 121 125 133 133 139 160 151 130 121 111 100 94 89 94 103 108 112 118 122 127 131 135 141 147 152 155 154 150 150 152 152 152 153 156 156 155 156 160 166 166 162 167 179 189 199 213 232 246 257 263 266 269
165 206 327 321 331 59 138 303 358 122 171 199 137 160 212 186 114 117 240 226 113 160 228 187 250 277 283 278 228 153 139 142 142 154 164 160 153 150 160 162 142 127 121 112 106 102 90 90 96 100 106 113 119 122 124 128 132 138 143 144 141 140 140 143 146 147 150 153 154 156 162 167 171 168 165 170 178 188 205 217 252 261 269 277 284 291
150 114 332 3 47 346 178 95 44 33 115 111 150 199 202 71 81 118 194 357 80 229 237 173 211 247 237 270 272 142 178 212 196 192 186 172 164 166 167 153 138 128 116 106 102 102 97 96 96 98 102 108 116 121 123 124 127 131 137 140 139 138 140 144 147 148 152 156 157 158 161 161 160 159 159 159 152 139 128 119 110 105 96 45 9 5
137 107 332 355 77 252 317 113 133 350 51 124 181 206 114 138 245 158 184 199 160 212 264 227 220 227 202 216 215 180 208 218 208 200 190 183 180 176 165 149 138 126 118 116 114 109 102 103 103 104 105 106 113 118 119 123 126 127 132 137 137 136 138 143 145 146 147 149 148 146 144 141 138 139 139 134 130 123 116 109 102 97 90 74 60 51
137 122 213 320 312 217 25 121 186 194 342 46 16 32 75 160 184 170 197 201 154 186 258 259 231 246 232 209 196 204 211 203 196 197 197 194 187 176 162 155 149 143 145 140 130 124 109 105 107 109 111 110 111 113 115 119 121 122 127 131 132 132 134 137 140 140 139 138 136 134 132 130 128 128 128 125 119 112 105 100 94 90 84 76 68 62
99 105 150 297 317 175 160 225 195 178 176 167 120 144 174 184 119 122 250 210 150 175 229 244 258 264 251 218 204 204 200 197 193 189 197 193 179 174 162 157 159 154 156 148 132 129 115 110 109 112 114 114 113 114 115 117 117 118 122 125 127 129 129 129 131 132 132 131 131 129 127 126 123 121 120 116 110 104 99 95 91 88 83 78 74 69
106 101 128 142 201 176 205 302 54 146 168 174 181 185 189 178 130 132 255 228 167 178 194 191 251 274 269 284 259 179 128 142 186 174 182 183 168 168 163 160 163 158 154 145 133 127 119 116 116 117 117 116 116 116 116 118 119 119 120 122 125 125 124 125 127 128 128 128 127 124 121 120 117 115 113 110 106 102 98 95 91 89 85 81 76 71
99 94 104 123 164 162 253 350 48 72 133 150 231 207 176 177 169 175 214 218 200 201 144 137 256 274 270 319 6 26 69 31 18 154 164 173 164 160 161 160 155 149 144 133 126 122 121 123 125 124 121 119 118 118 118 119 118 118 119 122 123 121 119 122 124 125 126 124 121 119 118 116 113 113 111 108 104 100 97 95 91 88 84 80 74 68
107 107 104 86 48 12 349 355 37 15 107 164 242 216 179 194 195 186 193 177 172 189 149 149 249 263 277 328 9 356 15 13 333 207 155 159 157 153 159 160 150 140 132 125 123 121 122 125 128 127 124 123 121 120 119 118 116 118 119 121 121 118 118 120 122 122 122 121 118 117 117 115 113 112 108 104 101 97 95 91 88 84 79 75 69 63
169 147 124 112 103 22 357 318 295 257 207 204 226 199 175 152 124 129 194 114 205 211 175 169 236 250 278 326 337 313 312 301 284 283 176 153 156 157 157 156 151 142 136 134 132 126 126 131 136 135 130 128 126 122 121 121 120 120 120 121 121 119 119 120 122 122 121 120 118 116 114 112 111 108 104 101 97 94 90 87 83 79 73 69 64 59
167 162 141 141 169 187 199 214 209 189 181 170 1 162 172 171 150 155 204 208 233 228 183 176 236 252 281 318 285 266 261 240 230 234 240 171 154 159 163 163 160 152 150 149 141 136 140 142 140 137 135 134 131 128 127 127 125 123 122 122 123 122 122 123 123 123 121 119 117 114 111 110 108 105 101 98 95 91 87 83 77 73 68 63 58 53
131 164 167 173 194 203 209 220 155 129 141 182 201 198 192 198 193 184 185 195 214 230 213 214 235 253 264 248 235 243 225 226 221 196 206 192 163 165 170 167 162 152 149 146 140 142 148 146 144 142 141 139 135 132 132 132 129 127 125 124 124 125 125 125 125 123 119 118 115 111 109 108 105 103 99 95 92 88 83 78 73 68 63 58 53 47
108 183 182 181 205 213 214 225 166 148 171 193 199 204 203 201 194 190 205 212 208 212 236 237 226 242 252 223 204 232 222 219 220 195 198 196 170 164 161 156 154 149 144 144 150 159 160 157 154 148 144 140 137 134 132 131 130 129 128 126 127 127 127 127 126 122 119 117 114 110 108 106 103 100 96 92 88 83 78 73 67 62 58 52 46 40
131 192 189 182 211 222 218 233 196 177 193 197 201 207 205 201 193 194 213 221 213 206 232 237 223 232 249 229 201 220 212 208 212 194 185 174 157 156 159 161 162 159 157 162 169 173 170 165 157 149 146 143 140 136 133 133 133 132 130 128 128 128 128 129 126 122 120 116 112 109 107 105 101 97 93 89 85 79 73 67 61 56 51 45 39 34
129 193 190 181 209 226 221 232 221 201 211 208 210 211 204 200 197 200 215 224 223 220 230 239 237 241 248 226 211 224 210 198 188 158 158 171 173 169 167 169 171 172 175 179 180 179 169 161 153 149 148 147 144 141 138 138 137 135 133 131 130 129 130 130 127 122 119 115 111 110 108 104 99 95 90 85 78 72 66 59 53 46 41 37 32 27
179 196 174 161 207 232 224 229 234 218 223 228 226 221 205 193 196 206 218 225 227 231 238 247 257 262 254 227 219 230 167 143 141 153 174 185 179 169 170 175 180 184 188 187 181 175 165 157 153 152 152 153 151 148 145 143 141 138 136 134 132 131 131 130 126 121 118 114 112 111 107 103 98 92 87 79 71 64 57 50 44 38 34 30 26 22
177 185 141 138 196 235 218 220 223 210 221 280 269 237 204 189 193 206 214 218 216 221 238 249 254 256 251 234 227 209 151 153 174 181 186 186 173 171 178 185 191 192 192 188 181 175 170 164 160 159 159 158 155 152 149 147 144 141 139 136 133 132 131 129 125 121 117 114 113 111 106 102 96 89 82 73 65 57 49 42 36 32 28 23 21 17
162 162 149 153 192 232 211 200 202 158 61 279 254 226 210 204 205 209 217 224 217 208 219 232 236 243 244 230 235 228 183 186 201 190 180 184 184 186 189 192 196 197 192 189 185 180 173 166 163 162 160 156 154 153 153 152 149 145 142 138 135 133 131 128 124 121 117 114 113 110 104 99 93 85 76 67 59 51 44 37 29 25 22 19 16 12
167 165 169 162 188 227 188 147 135 150 215 234 226 210 209 212 208 209 222 228 219 210 216 228 237 243 239 223 231 231 206 202 208 199 195 190 184 191 199 199 199 198 195 190 182 173 165 160 160 160 157 154 153 153 155 154 150 145 141 138 135 134 131 127 123 120 118 115 112 107 102 95 87 79 71 62 54 44 38 32 24 20 18 14 11 7
165 166 173 170 180 190 119 111 146 215 226 232 226 207 209 214 209 213 226 228 221 216 220 232 245 249 240 228 226 222 217 213 207 206 209 197 181 184 195 201 200 196 193 185 174 169 166 162 157 155 155 154 154 154 155 154 149 143 139 137 135 134 133 129 124 120 118 116 110 105 98 90 81 74 65 56 48 38 32 26 20 16 14 11 8 5
163 169 169 168 162 118 116 159 196 237 249 241 229 218 215 217 212 217 234 238 231 223 221 233 246 250 245 239 231 224 227 218 211 222 222 208 191 181 185 196 198 195 193 188 181 175 170 165 160 157 155 154 153 154 154 152 148 142 138 137 135 135 134 131 125 120 118 115 108 102 95 86 78 70 61 51 42 33 26 22 17 12 10 7 4 1
165 171 167 182 185 159 165 191 216 309 307 233 213 213 208 208 204 202 234 251 240 221 219 228 237 243 245 239 225 181 111 164 233 254 242 219 199 186 189 197 197 196 193 184 176 169 164 162 158 155 154 152 153 155 153 151 148 143 138 136 135 136 135 130 125 120 117 112 105 99 93 84 76 67 56 46 37 29 22 18 15 10 6 2 359 358
150 169 170 186 197 161 162 189 190 267 257 237 224 212 193 198 196 170 200 257 248 218 215 224 233 243 249 237 179 138 127 180 239 258 245 217 202 198 203 206 196 185 170 156 152 151 152 155 154 153 153 151 151 154 154 152 149 143 138 137 140 140 135 128 124 121 117 112 105 100 93 84 74 63 52 41 33 26 19 14 11 7 3 0 357 356
75 105 147 171 199 177 179 207 193 209 246 245 216 190 178 177 159 121 159 254 251 223 209 219 232 242 244 217 167 142 135 199 239 250 232 209 204 200 189 164 146 150 151 152 153 151 151 152 152 152 153 151 152 155 155 153 150 144 139 141 145 141 133 127 125 123 119 113 107 102 94 84 72 58 48 39 30 23 15 11 8 5 2 0 358 356
111 51 130 176 209 194 188 220 219 226 256 237 179 179 175 150 129 126 203 254 252 192 185 210 225 235 226 187 163 163 181 214 238 254 228 181 170 158 145 141 141 142 145 150 152 151 151 151 151 152 154 154 154 155 155 154 150 144 142 145 146 138 131 130 128 125 122 116 110 105 94 83 70 54 44 36 28 21 14 9 7 5 2 0 358 356
159 188 172 193 211 207 202 222 247 255 249 216 178 173 152 131 132 174 212 241 184 147 182 205 212 224 214 176 171 198 211 215 216 214 90 115 115 104 112 127 135 138 141 145 147 148 148 149 152 153 153 154 154 154 156 155 149 144 144 146 143 137 135 134 131 128 124 118 113 106 93 79 65 51 40 31 25 19 14 11 8 6 3 0 358 356
172 179 191 195 202 216 215 215 263 267 235 164 133 169 151 143 176 209 212 217 140 164 200 209 206 217 206 178 191 209 201 141 121 115 102 114 124 122 116 118 119 124 133 139 143 146 144 143 145 145 146 150 153 154 157 155 147 144 145 144 141 141 140 137 133 129 125 119 113 103 86 71 58 47 36 26 22 19 15 12 8 4 2 360 358 356
167 162 187 199 193 204 213 196 223 259 229 126 112 138 201 188 203 201 181 165 164 184 202 198 206 215 194 187 206 196 143 122 131 129 121 123 129 129 130 131 129 129 134 139 144 148 144 139 138 138 141 147 150 153 157 155 147 144 145 143 143 144 142 138 134 130 126 119 109 94 80 67 53 42 32 24 20 17 13 8 4 3 2 0 359 356
171 169 185 202 189 176 198 210 212 230 198 143 139 175 212 206 190 157 154 175 230 234 185 177 212 211 170 178 193 166 139 146 152 140 134 132 134 132 130 132 134 136 140 142 146 148 145 139 135 135 139 144 148 152 159 159 150 145 146 146 145 145 141 138 136 132 125 116 104 91 79 65 51 39 31 24 16 9 7 4 3 5 4 2 360 355
195 187 177 190 197 185 197 218 214 197 193 169 139 175 189 173 144 131 133 132 203 230 188 174 227 219 151 143 147 152 166 172 161 154 148 140 138 137 132 135 139 141 142 143 145 148 146 141 138 135 136 142 148 152 159 162 155 149 148 148 147 145 142 140 137 131 122 114 104 93 81 65 54 42 29 20 11 6 5 5 4 5 4 0 357 353
216 187 163 171 200 210 222 226 215 207 228 217 94 97 136 124 108 105 102 96 108 189 160 150 217 212 177 151 151 175 193 174 155 149 142 137 138 135 132 135 140 142 143 144 145 148 146 141 139 137 136 140 149 153 157 161 158 152 149 149 147 145 144 141 135 129 122 116 108 98 85 66 53 39 23 15 12 10 10 9 6 2 0 357 354 350
285 192 171 174 179 194 225 233 222 206 212 205 175 54 43 114 95 83 105 121 117 98 101 95 88 168 194 190 171 172 164 140 131 131 132 137 142 143 143 142 142 145 147 147 148 149 147 143 141 140 139 141 149 155 156 158 158 154 150 149 147 145 144 141 136 132 128 122 114 101 82 54 35 26 17 12 11 12 12 10 5 359 356 354 348 343
205 168 170 183 186 194 221 236 214 156 166 177 168 192 227 198 136 86 100 126 117 93 89 93 92 107 133 127 115 122 128 133 140 144 147 150 149 148 148 146 144 144 146 148 151 152 151 148 145 144 143 145 150 156 157 157 156 153 150 149 148 146 145 143 139 136 132 125 116 95 68 45 29 23 18 14 12 11 9 6 1 354 351 351 345 337
152 159 175 182 195 223 247 245 103 74 29 243 223 229 235 193 139 123 126 129 124 124 128 117 89 102 133 135 129 129 141 161 164 156 155 158 157 154 153 151 149 149 150 153 157 158 156 154 152 149 148 149 153 156 157 156 154 152 151 150 149 148 147 145 142 139 132 124 111 86 63 48 35 26 21 15 12 9 5 2 358 351 348 351 350 341
141 162 171 165 190 226 241 206 160 144 207 244 239 257 258 165 133 136 155 149 145 158 154 131 59 22 87 150 152 148 156 174 176 163 160 164 164 160 157 153 151 152 155 157 159 160 160 157 155 153 151 153 156 157 156 156 155 153 153 152 150 152 152 149 147 143 134 122 106 87 69 54 43 34 26 17 7 1 359 359 360 358 355 356 354 345
167 182 175 170 193 224 249 199 170 166 167 187 277 319 296 152 147 167 193 178 165 171 164 149 131 88 332 217 189 171 170 175 171 165 164 169 168 164 162 161 160 160 162 163 161 160 161 160 158 157 155 156 158 158 157 158 157 156 156 156 154 155 155 154 153 145 133 122 107 90 72 59 49 39 29 19 8 360 356 353 355 359 4 4 357 349